FW7308 Weather Reports


time (UTC)temp
F
wind
direction
speed
knots
gust
knots
rain 1hr
in
rain 24hr
in
rain mn
in
humidity
%
barometer
mb
20260831200227 76 163 6.1 7.8 0.00 0.00 0.00 70 1021.5
20260831195733 76 324 3.5 6.1 0.00 0.00 0.00 72 1021.4
20260831195227 76 133 5.2 12.2 0.00 0.00 0.00 70 1021.4
20260831194728 76 332 0.9 1.7 0.00 0.00 0.00 68 1021.7
20260831194226 74 62 2.6 5.2 0.00 0.00 0.00 70 1021.7
20260831193827 75 169 6.1 7.8 0.00 0.00 0.00 71 1021.7
20260831193226 75 173 4.3 6.1 0.00 0.00 0.00 69 1021.7
20260831192727 75 240 4.3 6.1 0.00 0.00 0.00 69 1021.9
20260831192228 74 14 2.6 4.3 0.00 0.00 0.00 70 1021.7
20260831191725 75 301 2.6 4.3 0.00 0.00 0.00 69 1021.7
20260831191225 76 170 5.2 7.8 0.00 0.00 0.00 69 1021.9
20260831190725 75 319 1.7 2.6 0.00 0.00 0.00 67 1022.1
20260831190223 75 224 6.1 9.6 0.00 0.00 0.00 67 1022.1
20260831185727 74 247 1.7 4.3 0.00 0.00 0.00 68 1022.1
20260831185324 74 192 4.3 6.1 0.00 0.00 0.00 67 1022.1
20260831184725 74 18 0.9 1.7 0.00 0.00 0.00 67 1022.1
20260831174218 72 162 4.3 8.7 0.00 0.00 0.00 68 1022.8
20260831173724 72 23 1.7 2.6 0.00 0.00 0.00 67 1022.8
20260831173220 73 344 2.6 4.3 0.00 0.00 0.00 65 1022.8
20260831172218 73 129 2.6 5.2 0.00 0.00 0.00 66 1022.8
20260831171217 73 182 3.5 5.2 0.00 0.00 0.00 63 1022.8
20260831170718 73 308 1.7 1.7 0.00 0.00 0.00 65 1022.8
20260831170245 73 226 3.5 6.1 0.00 0.00 0.00 63 1022.8
20260831165746 72 327 0.0 0.9 0.00 0.00 0.00 63 1023.1
20260831165245 73 180 2.6 4.3 0.00 0.00 0.00 61 1023.1
20260831164745 72 221 2.6 2.6 0.00 0.00 0.00 62 1023.1
20260831164244 72 168 3.5 5.2 0.00 0.00 0.00 62 1023.1
20260831163743 71 322 0.9 0.9 0.00 0.00 0.00 60 1023.1
20260831163244 72 126 2.6 4.3 0.00 0.00 0.00 59 1023.1
20260831162743 72 147 3.5 5.2 0.00 0.00 0.00 59 1023.1
20260831162243 72 26 4.3 5.2 0.00 0.00 0.00 57 1023.5
20260831161742 71 77 2.6 4.3 0.00 0.00 0.00 60 1023.5
20260831161243 71 24 1.7 2.6 0.00 0.00 0.00 58 1023.5
20260831160742 71 77 2.6 4.3 0.00 0.00 0.00 59 1023.5
20260831160241 71 338 0.9 0.9 0.00 0.00 0.00 56 1023.5
20260831155741 70 11 2.6 2.6 0.00 0.00 0.00 59 1023.5
20260831155242 71 161 2.6 4.3 0.00 0.00 0.00 60 1023.5
20260831154741 70 273 2.6 2.6 0.00 0.00 0.00 61 1023.5
20260831153741 71 151 3.5 4.3 0.00 0.00 0.00 67 1023.8
20260831153240 71 195 4.3 6.1 0.00 0.00 0.00 67 1023.5
20260831152743 71 306 1.7 1.7 0.00 0.00 0.00 65 1023.5
20260831152239 71 346 0.9 0.9 0.00 0.00 0.00 67 1023.5
20260831151740 72 326 3.5 4.3 0.00 0.00 0.00 64 1023.5
20260831151239 71 108 3.5 5.2 0.00 0.00 0.00 68 1023.5
20260831150738 70 229 2.6 2.6 0.00 0.00 0.00 67 1023.6
20260831150237 70 184 3.5 5.2 0.00 0.00 0.00 69 1023.5
20260831145738 70 335 0.9 1.7 0.00 0.00 0.00 67 1023.5
20260831144737 69 11 1.7 2.6 0.00 0.00 0.00 71 1023.8
20260831144337 70 105 3.5 6.1 0.00 0.00 0.00 69 1023.8
20260831143736 69 336 1.7 2.6 0.00 0.00 0.00 73 1023.8
20260831143237 69 323 1.7 2.6 0.00 0.00 0.00 76 1023.6
20260831142235 69 25 1.7 2.6 0.00 0.00 0.00 76 1023.8
20260831141735 69 82 2.6 4.3 0.00 0.00 0.00 77 1023.8
20260831141237 69 321 0.9 1.7 0.00 0.00 0.00 77 1023.8
20260831140736 68 349 1.7 2.6 0.00 0.00 0.00 76 1023.8
20260831140234 68 207 3.5 4.3 0.00 0.00 0.00 78 1023.8
20260831135733 68 162 3.5 5.2 0.00 0.00 0.00 79 1023.8
20260831135236 69 202 2.6 4.3 0.00 0.00 0.00 79 1023.5
20260831134733 68 305 1.7 1.7 0.00 0.00 0.00 79 1023.8
20260831134332 67 324 3.5 4.3 0.00 0.00 0.00 81 1023.5
20260831133732 68 6 1.7 2.6 0.00 0.00 0.00 83 1023.8
20260831133233 65 332 0.0 0.9 0.00 0.00 0.00 87 1023.6
20260831132732 66 339 2.6 2.6 0.00 0.00 0.00 86 1023.8
20260831132231 66 334 2.6 2.6 0.00 0.00 0.00 84 1023.6
20260831131730 66 14 1.7 2.6 0.00 0.00 0.00 89 1023.5
20260831131229 66 316 1.7 1.7 0.00 0.00 0.00 88 1023.5
20260831130731 65 335 2.6 5.2 0.00 0.00 0.00 83 1023.5
20260831130232 65 351 1.7 2.6 0.00 0.00 0.00 85 1023.5
20260831125729 65 317 2.6 4.3 0.00 0.00 0.00 86 1023.5
20260831125230 65 311 1.7 2.6 0.00 0.00 0.00 89 1023.6
20260831124729 64 324 0.9 1.7 0.00 0.00 0.00 91 1023.5
20260831124229 63 0.0 0.0 0.00 0.00 0.00 93 1023.5
20260831123733 63 335 0.9 1.7 0.00 0.00 0.00 94 1023.5
20260831123229 63 0.0 0.0 0.00 0.00 0.00 98 1023.5
20260831122227 62 320 0.0 0.9 0.00 0.00 0.00 99 1023.5
20260831111723 58 325 1.7 1.7 0.00 0.00 0.00 99 1023.1
20260831111222 57 328 1.7 1.7 0.00 0.00 0.00 99 1022.8
20260831110723 57 331 0.9 0.9 0.00 0.00 0.00 99 1022.8
20260831110222 57 0.0 0.0 0.00 0.00 0.00 99 1022.8
20260831105722 57 331 0.9 0.9 0.00 0.00 0.00 99 1022.8
20260831105222 57 331 0.9 0.9 0.00 0.00 0.00 99 1022.9
20260831104720 57 333 0.9 1.7 0.00 0.00 0.00 99 1022.4
20260831104222 57 329 0.9 0.9 0.00 0.00 0.00 99 1022.8
20260831103720 57 326 0.9 0.9 0.00 0.00 0.00 99 1022.8
20260831103219 58 324 1.7 2.6 0.00 0.00 0.00 99 1022.8
20260831102722 57 318 1.7 4.3 0.00 0.00 0.00 99 1022.8
20260831102321 57 322 1.7 1.7 0.00 0.00 0.00 99 1022.8
20260831101720 57 325 1.7 2.6 0.00 0.00 0.00 99 1022.4
20260831101218 57 321 1.7 1.7 0.00 0.00 0.00 99 1022.4
20260831100719 56 326 1.7 2.6 0.00 0.00 0.00 99 1022.8
20260831100218 56 324 1.7 1.7 0.00 0.00 0.00 99 1022.8
20260831095818 56 326 0.9 1.7 0.00 0.00 0.00 99 1022.8
20260831094759 56 327 0.9 1.7 0.00 0.00 0.00 99 1022.8
20260831074238 58 321 1.7 1.7 0.00 0.00 0.00 99 1021.9
20260831073740 58 322 1.7 1.7 0.00 0.00 0.00 99 1021.7
20260831073339 58 328 1.7 1.7 0.00 0.00 0.00 99 1021.7
20260831072803 58 326 1.7 1.7 0.00 0.00 0.00 99 1021.7
20260831072238 58 322 1.7 1.7 0.00 0.00 0.00 99 1021.7
20260831071737 58 323 1.7 1.7 0.00 0.00 0.00 99 1021.7
20260831071237 59 324 1.7 1.7 0.00 0.00 0.00 99 1021.4
20260831070736 59 322 1.7 1.7 0.00 0.00 0.00 99 1021.7
20260831070237 59 325 1.7 1.7 0.00 0.00 0.00 99 1021.7
20260831064735 59 327 0.9 1.7 0.00 0.00 0.00 99 1021.7
20260831063736 59 333 1.7 1.7 0.00 0.00 0.00 99 1021.7
20260831063234 59 333 1.7 1.7 0.00 0.00 0.00 99 1021.5
20260831062738 59 322 1.7 1.7 0.00 0.00 0.00 99 1021.7
20260831061734 59 320 1.7 1.7 0.00 0.00 0.00 99 1021.7
20260831061233 59 322 1.7 1.7 0.00 0.00 0.00 99 1021.7
20260831060732 59 318 0.9 1.7 0.00 0.00 0.00 99 1021.7
20260831060233 59 0.0 0.0 0.00 0.00 0.00 99 1021.9
20260831055732 59 332 1.7 1.7 0.00 0.00 0.00 99 1021.7
20260831055232 59 331 0.9 1.7 0.00 0.00 0.00 99 1021.7
20260831054732 59 326 1.7 1.7 0.00 0.00 0.00 99 1021.7
20260831054230 59 329 1.7 1.7 0.00 0.00 0.00 99 1021.7
20260831053731 59 324 0.9 1.7 0.00 0.00 0.00 99 1021.5
20260831053230 59 328 1.7 1.7 0.00 0.00 0.00 99 1021.4
20260831052733 59 323 0.9 1.7 0.00 0.00 0.00 99 1021.4
20260831052229 60 322 0.9 0.9 0.00 0.00 0.00 99 1021.5
20260831051728 60 323 0.9 0.9 0.00 0.00 0.00 99 1021.4
20260831051230 60 328 0.9 0.9 0.00 0.00 0.00 99 1021.4
20260831050729 60 322 0.9 1.7 0.00 0.00 0.00 99 1021.4
20260831050227 60 324 0.9 0.9 0.00 0.00 0.00 99 1021.4
20260831045726 60 324 0.9 0.9 0.00 0.00 0.00 98 1021.4
20260831045228 61 0.0 0.0 0.00 0.00 0.00 98 1021.0
20260831044727 61 331 0.9 1.7 0.00 0.00 0.00 98 1021.4
20260831044226 61 331 0.0 0.9 0.00 0.00 0.00 98 1021.4
20260831043725 61 330 0.9 0.9 0.00 0.00 0.00 97 1021.4
20260831043226 61 331 0.9 1.7 0.00 0.00 0.00 97 1021.4
20260831042726 61 326 0.9 0.9 0.00 0.00 0.00 96 1021.4
20260831042225 62 328 0.9 0.9 0.00 0.00 0.00 96 1021.0
20260831041726 62 0.0 0.0 0.00 0.00 0.00 95 1021.0
20260831040724 62 332 0.9 0.9 0.00 0.00 0.00 95 1021.0
20260831040324 62 329 0.9 0.9 0.00 0.00 0.00 95 1021.0
20260831035725 63 326 0.9 0.9 0.00 0.00 0.00 94 1021.0
20260831034728 63 328 0.9 0.9 0.00 0.00 0.00 93 1021.0
20260831034222 63 341 2.6 4.3 0.00 0.00 0.00 92 1021.2
20260831033826 64 331 0.9 0.9 0.00 0.00 0.00 92 1021.4
20260831033223 63 329 0.9 1.7 0.00 0.00 0.00 92 1021.0
20260831032722 63 331 0.9 0.9 0.00 0.00 0.00 92 1021.0
20260831032221 63 329 0.0 0.9 0.00 0.00 0.00 92 1021.0
20260831031723 64 322 0.9 1.7 0.00 0.00 0.00 91 1021.0
20260831031221 64 330 0.9 1.7 0.00 0.00 0.00 91 1021.0
20260831030721 65 335 0.9 0.9 0.00 0.00 0.00 89 1021.0
20260831030220 65 341 0.9 0.9 0.00 0.00 0.00 90 1021.0
20260831025821 65 335 1.7 1.7 0.00 0.00 0.00 89 1021.2
20260831025220 65 348 1.7 4.3 0.00 0.00 0.00 89 1021.0
20260831024719 65 336 0.9 0.9 0.00 0.00 0.00 88 1021.0
20260831024218 65 332 0.9 1.7 0.00 0.00 0.00 90 1021.0
20260831023718 65 330 0.0 0.9 0.00 0.00 0.00 89 1021.2
20260831023219 65 328 0.0 0.9 0.00 0.00 0.00 90 1021.0
20260831022718 65 316 1.7 1.7 0.00 0.00 0.00 89 1021.0
20260831022217 65 341 0.9 1.7 0.00 0.00 0.00 89 1021.2
20260831021718 66 336 0.0 0.9 0.00 0.00 0.00 89 1021.0
20260831021218 66 331 1.7 2.6 0.00 0.00 0.00 89 1020.7
20260831020717 66 327 2.6 4.3 0.00 0.00 0.00 88 1020.7
20260831020216 66 338 1.7 4.3 0.00 0.00 0.00 87 1021.0
20260831015745 66 333 3.5 4.3 0.00 0.00 0.00 88 1021.0
20260831015246 66 336 2.6 4.3 0.00 0.00 0.00 88 1020.7
20260831014747 66 328 2.6 4.3 0.00 0.00 0.00 88 1020.7
20260831013744 66 334 1.7 2.6 0.00 0.00 0.00 88 1020.7
20260831013245 66 331 2.6 4.3 0.00 0.00 0.00 88 1020.7
20260831012744 66 328 1.7 4.3 0.00 0.00 0.00 88 1020.7
20260831012244 66 333 1.7 1.7 0.00 0.00 0.00 88 1020.7
20260831011744 67 347 0.0 0.9 0.00 0.00 0.00 88 1020.7
20260831011244 67 346 1.7 2.6 0.00 0.00 0.00 88 1020.3
20260831010843 67 325 1.7 4.3 0.00 0.00 0.00 88 1020.3
20260831010242 67 308 2.6 4.3 0.00 0.00 0.00 88 1020.3
20260831005242 67 343 2.6 4.3 0.00 0.00 0.00 87 1020.7
20260831004742 67 327 0.9 1.7 0.00 0.00 0.00 88 1020.3
20260831003742 67 325 2.6 2.6 0.00 0.00 0.00 88 1020.0
20260831003241 67 305 3.5 5.2 0.00 0.00 0.00 89 1020.0
20260831002740 67 340 1.7 2.6 0.00 0.00 0.00 89 1020.0
20260831002240 67 332 3.5 6.1 0.00 0.00 0.00 90 1020.0
20260831001839 67 324 0.9 1.7 0.00 0.00 0.00 90 1020.0
20260831001239 67 312 0.9 1.7 0.00 0.00 0.00 90 1020.0
20260831000739 67 320 0.9 1.7 0.00 0.00 0.00 89 1019.6
20260831000238 68 344 1.7 2.6 0.00 0.00 0.00 88 1019.6
20260830235737 68 313 2.6 6.1 0.00 0.00 0.00 86 1019.6
20260830235238 68 296 3.5 6.1 0.00 0.00 0.00 86 1019.6
20260830234737 69 326 0.9 0.9 0.00 0.00 0.00 85 1019.6
20260830234236 69 0.0 0.0 0.00 0.00 0.00 84 1019.6
20260830233735 69 325 0.9 1.7 0.00 0.00 0.00 83 1019.6
20260830233237 70 331 2.6 2.6 0.00 0.00 0.00 82 1019.3
20260830232736 70 331 2.6 5.2 0.00 0.00 0.00 81 1019.3
20260830232235 70 330 2.6 4.3 0.00 0.00 0.00 80 1019.4
20260830231734 70 332 0.9 2.6 0.00 0.00 0.00 80 1019.3
20260830231236 70 334 0.9 1.7 0.00 0.00 0.00 80 1019.3
20260830230736 70 0.0 0.0 0.00 0.00 0.00 80 1019.3
20260830230335 70 335 0.0 0.9 0.00 0.00 0.00 79 1019.3
20260830225234 71 322 0.9 1.7 0.00 0.00 0.00 80 1019.3
20260830224733 71 333 0.9 0.9 0.00 0.00 0.00 78 1019.3
20260830224233 71 329 1.7 2.6 0.00 0.00 0.00 78 1019.3
20260830223734 71 344 0.9 1.7 0.00 0.00 0.00 79 1019.3
20260830223233 71 324 1.7 2.6 0.00 0.00 0.00 77 1019.3
20260830222732 72 328 0.9 1.7 0.00 0.00 0.00 77 1019.3
20260830222231 72 327 1.7 1.7 0.00 0.00 0.00 77 1019.3
20260830221730 72 329 0.9 1.7 0.00 0.00 0.00 77 1019.3
20260830221232 72 345 1.7 2.6 0.00 0.00 0.00 78 1019.4
20260830220731 72 332 3.5 7.0 0.00 0.00 0.00 78 1019.3
20260830220231 73 322 2.6 4.3 0.00 0.00 0.00 77 1019.3
20260830215729 73 322 1.7 1.7 0.00 0.00 0.00 77 1019.3
20260830215230 73 329 1.7 2.6 0.00 0.00 0.00 76 1019.3
20260830214732 74 343 0.9 0.9 0.00 0.00 0.00 75 1019.3
20260830214229 75 335 2.6 2.6 0.00 0.00 0.00 75 1019.3
20260830213728 75 345 1.7 2.6 0.00 0.00 0.00 75 1019.3
20260830213228 74 0.0 0.0 0.00 0.00 0.00 77 1019.6
20260830212728 73 324 0.0 0.9 0.00 0.00 0.00 77 1019.3
20260830212228 73 333 0.9 1.7 0.00 0.00 0.00 77 1019.6
20260830211727 73 332 0.0 0.9 0.00 0.00 0.00 77 1019.4
20260830211226 73 332 0.9 0.9 0.00 0.00 0.00 77 1019.6
20260830210727 74 314 1.7 2.6 0.00 0.00 0.00 76 1019.3
20260830210227 74 324 1.7 2.6 0.00 0.00 0.00 74 1019.3
20260830205726 75 318 0.9 1.7 0.00 0.00 0.00 73 1019.6
20260830205225 76 0.0 0.0 0.00 0.00 0.00 74 1019.6
20260830204724 76 302 1.7 5.2 0.00 0.00 0.00 72 1019.6
20260830204225 74 348 0.9 1.7 0.00 0.00 0.00 76 1019.6
20260830203724 74 8 0.9 1.7 0.00 0.00 0.00 79 1019.6
20260830203224 74 325 0.9 0.9 0.00 0.00 0.00 76 1019.6
20260830202825 74 0.0 0.0 0.00 0.00 0.00 75 1019.6
20260830202224 74 314 0.9 1.7 0.00 0.00 0.00 73 1019.6
20260830201723 75 329 0.9 0.9 0.00 0.00 0.00 77 1019.6
20260830201222 75 337 0.9 1.7 0.00 0.00 0.00 72 1019.6
20260830200721 75 344 1.7 4.3 0.00 0.00 0.00 71 1019.6